Погода в Сковородино

Россия / Амурская область     53°59′13″N   123°56′37″E
темп.,
°C
ветер,
м/с
пор.,
м/с
влажн.,
%
обл.,
%
осадки,
мм/ч
давл.,
гПа
погр.,
м
8 мая, сб
сб800:00+2с1296100 0.0 100538
03:00+2с1299100 0.2 1005334
06:00+2с1298100 0.2 1005142
09:00+5с237162 0.3 10051018
12:00+7ссв3450100 0.3 10051735
15:00+9ссв344095 0.9 10041980
18:00+8св3449100 0.4 10041493
21:00+3св118179 0.5 100710
9 мая, вс
вс900:00+2ссв118588 0.0 100713
03:00+1с119059 0.0 100817
06:000с228934 0.0 100965
09:00+7св2253100 0.0 10081130
12:00+9ссв2247100 0.5 10071620
15:00+10св1148100 1.4 10071471
18:00+8ююз1164100 1.2 1008847
21:00+4всв11888 1.8 101013
10 мая, пн
пн1000:00+2всв119452 0.0 101111
03:00+2в118792 0.0 101116
06:00+3всв1185100 0.0 101242
09:00+5ююв0074100 0.0 1012421
12:00+11вюв014964 0.1 10111486
15:00+13юз124386 0.9 10101795
18:00+11с124781 0.8 10101401
21:00+5в117516 0.9 101213
11 мая, вт
вт1100:00+4всв2481100 0.1 101387
03:00+3в2385100 0.1 101267
06:00+4вюв3889100 0.4 1012285
09:00+6в51087100 0.8 1010741
12:00+4в41197100 6.9 1009783
15:00+5всв4995100 9.2 1006459
18:00+6всв3899100 7.6 1003348
21:00+7в41197100 17.0 1001535
12 мая, ср
ср1200:00+7в3996100 3.4 1000422
03:00+7всв41096100 10.4 997666
06:00+7в51495100 8.4 9941401
09:00+7в51295100 11.8 9941270
12:00+5всв51296100 2.4 9941020
15:00+7всв249589 3.9 996364
18:00+8с338868 0.9 996480
21:00+5зсз2399100 7.6 998173